This is the latest recevied weather packets stored in our database for station/object WB3EGK. If no packets are shown the sender has not sent any weather packets the latest 10 day(s).
| Time | Temp. | Humidity | Pressure | Rain* | Wind** | Luminosity | Snow |
|---|---|---|---|---|---|---|---|
| 1778097633 | 10.56° C | 1% | 1008.8 hPa | 0 mm | - | 361 W/m² | - |
| 1778097330 | 10.56° C | 1% | 1008.9 hPa | 0 mm | - | 314 W/m² | - |
| 1778097026 | 10.56° C | 1% | 1008.9 hPa | 0 mm | - | 314 W/m² | - |
| 1778096724 | 11.11° C | 1% | 1009.1 hPa | 0 mm | - | 445 W/m² | - |
| 1778096421 | 11.11° C | 1% | 1009 hPa | 0 mm | - | 456 W/m² | - |
| 1778096118 | 10.56° C | 1% | 1008.7 hPa | 0 mm | - | 343 W/m² | - |
| 1778095815 | 10.56° C | 1% | 1008.7 hPa | 0 mm | - | 311 W/m² | - |
| 1778095512 | 11.11° C | 1% | 1009.1 hPa | 0 mm | - | 278 W/m² | - |
| 1778095208 | 11.11° C | 1% | 1008.8 hPa | 0 mm | - | 603 W/m² | - |
| 1778094905 | 11.67° C | 1% | 1008.7 hPa | 0 mm | - | 552 W/m² | - |
| 1778094601 | 11.11° C | 1% | 1008.7 hPa | 0 mm | - | 498 W/m² | - |
| 1778094298 | 11.67° C | 1% | 1008.6 hPa | 0 mm | - | 498 W/m² | - |
| 1778093994 | 11.67° C | 1% | 1008.9 hPa | 0 mm | - | 672 W/m² | - |
| 1778093692 | 11.11° C | 1% | 1008.6 hPa | 0 mm | - | 789 W/m² | - |
| 1778093388 | 11.67° C | 1% | 1008.8 hPa | 0 mm | - | 553 W/m² | - |
| 1778093086 | 11.67° C | 1% | 1008.7 hPa | 0 mm | - | 524 W/m² | - |
| 1778092783 | 11.11° C | 1% | 1008.7 hPa | 0 mm | - | 596 W/m² | - |
| 1778092478 | 11.11° C | 1% | 1008.5 hPa | 0 mm | - | 422 W/m² | - |
| 1778092176 | 11.11° C | 1% | 1008.8 hPa | 0 mm | - | 350 W/m² | - |
| 1778091873 | 11.67° C | 1% | 1008.5 hPa | 0 mm | - | 959 W/m² | - |
| 1778091570 | 11.11° C | 1% | 1008.5 hPa | 0 mm | - | 542 W/m² | - |
| 1778091268 | 11.11° C | 1% | 1008.5 hPa | 0 mm | - | 258 W/m² | - |
| 1778090964 | 11.67° C | 1% | 1008.5 hPa | 0 mm | - | 1054 W/m² | - |
| 1778090661 | 12.22° C | 1% | 1008.4 hPa | 0 mm | - | 304 W/m² | - |
| 1778090358 | 11.11° C | 1% | 1008.6 hPa | 0 mm | - | 573 W/m² | - |
* Rain latest hour (hover to see other rain measurements)
** Current wind speed in m/s (hover to see current wind gust speed)